Regional Weather Roundup
Issued by NWS Jackson, KY

Home | Current Version | Previous Version | Text Only | Print | Product List | Glossary Off
Versions: 1 2 3 4 5 6 7 8 9 10 11 12 13 14 15 16 17 18 19 20 21 22 23 24 25 26 27

000
ASUS43 KJKL 190410
RWRJKL

EAST KENTUCKY HOURLY WEATHER ROUNDUP
NATIONAL WEATHER SERVICE JACKSON KY
1200 AM EDT TUE SEP 19 2017

NOTE: "FAIR" INDICATES FEW OR NO CLOUDS BELOW 12,000 FEET WITH
NO SIGNIFICANT WEATHER AND/OR OBSTRUCTIONS TO VISIBILITY.

* THESE REPORTS ARE NOT UNDER NWS QUALITY CONTROL AND MAY NOT
  REPORT WEATHER SUCH AS PRECIPITATION AND FOG.

KYZ079-080-083-085-087-088-110-112-115-119-120-190500
...EASTERN KENTUCKY...

CITY           SKY/WX    TMP DP  RH WIND       PRES   REMARKS
JACKSON        CLEAR     68  61  78 SE5       30.06F
LONDON         CLEAR     67  64  90 CALM      30.04F
SOMERSET*      CLOUDY    66  66 100 CALM      30.05R
MONTICELLO*    MOCLDY    65  64  97 VRB6      30.05S
WILLIAMSBURG*  CLEAR     64  64 100 CALM      30.04S
MIDDLESBORO*   CLEAR     65  65 100 CALM      30.07S
HARLAN APT*    CLEAR     63  61  94 CALM      30.08F
PIKE CO APT*     N/A     66  66 100 S6        30.07F
BIG SANDY APT* CLEAR     65  65  98 SW3       30.06F
MOREHEAD APT*  CLOUDY    70  66  88 SE3       30.06S
$$

KYZ035-036-041-042-044-050-067-078-099-190500
...CENTRAL KENTUCKY...

CITY           SKY/WX    TMP DP  RH WIND       PRES   REMARKS
MT STERLING*   CLOUDY    68  64  88 S3        30.05F
FLEMING/MASON* CLOUDY    68  65  90 E3        30.05S
DANVILLE*      MOCLDY    66  64  94 CALM      30.04S
LEXINGTON      CLOUDY    73  66  78 SE5       30.03S
FRANKFORT      CLOUDY    73  65  75 SE3       29.99F
LOUISVILLE     CLOUDY    75  69  81 CALM      29.98F
LEBANON*         N/A     72  66  83 SE3       30.02S
GLASGOW*       CLEAR    N/A N/A N/A CALM      30.01S HAZE
BOWLING GREEN  PTCLDY    69  69 100 CALM      30.00R
$$

KYZ091>093-OHZ055-061-077-WVZ005-015-034-035-042-190500
...SOUTHERN OHIO/WEST VIRGINIA...

CITY           SKY/WX    TMP DP  RH WIND       PRES   REMARKS
COVINGTON      PTCLDY    72  67  84 S3        30.01F
COLUMBUS       CLOUDY    74  66  76 S3        30.03S
DAYTON         MOCLDY    67  66  97 NE3       30.03S FOG
WILMINGTON     CLOUDY    70  66  87 CALM      30.02F
HUNTINGTON     CLOUDY    68  66  93 CALM      30.04S
CHARLESTON     PTCLDY    66  64  93 CALM      30.05S
PINEVILLE*     CLOUDY    64  63  94 MISG      30.14F
BECKLEY        PTCLDY    62  60  93 CALM      30.12F
BLUEFIELD      CLOUDY    64  58  80 CALM      30.15S
LOGAN CO APT*    N/A     66  64  94 CALM      30.08S
$$

VAZ002-007-008-TNZ017-027-036-066-071-190500
...SOUTHWEST VIRGINIA/EAST TENNESSEE...

CITY           SKY/WX    TMP DP  RH WIND       PRES   REMARKS
WISE*          CLEAR     61  61 100 CALM      30.14F
JONESVILLE*      N/A     61  59  94 CALM      30.08F
ABINGDON*      CLEAR     63  60  88 CALM      30.11S
BRISTOL        CLEAR     60  59  96 CALM      30.08S
MORRISTOWN*    CLEAR     66  61  82 CALM      30.03F
SEVIERVILLE*   CLEAR     64  61  88 CALM      30.03F
KNOXVILLE      PTCLDY    71  64  78 CALM      30.03S
LAFOLLETTE*    CLEAR     64  64 100 CALM      30.08S FOG
OAK RIDGE      CLEAR     68  65  90 CALM      30.04S
CROSSVILLE     CLEAR     65  63  93 CALM      30.07F
NASHVILLE      PTCLDY    72  67  84 CALM      30.00S
$$

...KEY TO REMARKS...
VSB - VISIBILITY IN MILES
WCI - WIND CHILL INDEX
HX  - HEAT INDEX

$$




USA.gov is the U.S. government's official web portal to all federal, state and local government web resources and services.